CW4352 Weather Reports


Display with metric or nautical units.
time (UTC)temp
F
wind
direction
speed
MPH
gust
MPH
rain 1hr
in
rain 24hr
in
rain mn
in
humidity
%
barometer
mb
20260508070703 59 36 1.0 3.0 0.00 0.00 0.00 86 1010.2
20260508070204 58 36 0.0 3.0 0.00 0.00 0.00 87 1010.2
20260508064704 57 36 0.0 1.0 0.00 0.00 0.00 86 1009.9
20260508063704 57 36 1.0 2.0 0.00 0.00 0.00 88 1009.9
20260508061703 56 36 0.0 2.0 0.00 0.00 0.00 92 1009.9
20260508061203 56 36 0.0 2.0 0.00 0.00 0.00 92 1009.5
20260508060204 55 36 0.0 3.0 0.00 0.00 0.00 93 1009.5
20260508054703 54 36 1.0 3.0 0.00 0.00 0.00 93 1009.5
20260508054203 53 36 0.0 0.0 0.00 0.00 0.00 93 1009.5
20260508053704 53 36 0.0 2.0 0.00 0.00 0.00 92 1009.5
20260508051703 53 36 0.0 0.0 0.00 0.00 0.00 93 1009.2
20260508051204 53 36 0.0 0.0 0.00 0.00 0.00 93 1009.2
20260508050704 53 36 0.0 2.0 0.00 0.00 0.00 94 1009.2
20260508050203 53 36 0.0 1.0 0.00 0.00 0.00 94 1009.2
20260508044704 53 36 0.0 0.0 0.00 0.00 0.00 94 1009.0
20260508043703 52 36 0.0 1.0 0.00 0.00 0.00 94 1009.0
20260508043204 52 36 0.0 0.0 0.00 0.00 0.00 94 1009.0
20260508041203 51 36 0.0 0.0 0.00 0.00 0.00 92 1008.9
20260508040203 51 36 0.0 3.0 0.00 0.00 0.00 92 1008.9
20260508034704 51 36 0.0 0.0 0.00 0.00 0.00 92 1008.9
20260508033203 51 36 0.0 0.0 0.00 0.00 0.00 92 1008.6
20260508024704 51 36 0.0 2.0 0.00 0.00 0.00 92 1008.9
20260508024204 51 36 0.0 0.0 0.00 0.00 0.00 92 1008.9
20260508021204 51 36 0.0 0.0 0.00 0.00 0.00 90 1008.9
20260508020703 51 36 0.0 2.0 0.00 0.00 0.00 89 1008.9
20260508010703 53 36 0.0 0.0 0.00 0.00 0.00 85 1008.6
20260508010205 53 36 0.0 1.0 0.00 0.00 0.00 85 1008.6
20260508004204 54 36 1.0 3.0 0.00 0.00 0.00 83 1008.6
20260508003203 54 36 1.0 3.0 0.00 0.00 0.00 84 1008.6
20260508001703 54 36 0.0 3.0 0.00 0.00 0.00 83 1008.6
20260508001203 54 36 0.0 2.0 0.00 0.00 0.00 83 1008.6
20260508000704 54 36 0.0 3.0 0.00 0.00 0.00 83 1008.7
20260507234703 55 36 0.0 1.0 0.00 0.00 0.00 80 1008.8
20260507233203 55 36 0.0 0.0 0.00 0.00 0.00 80 1008.7
20260507231704 55 36 0.0 0.0 0.00 0.00 0.00 78 1008.7
20260507231203 55 36 0.0 1.0 0.00 0.00 0.00 78 1008.7
20260507223704 56 36 1.0 3.0 0.00 0.00 0.00 77 1008.6
20260507221703 56 36 0.0 0.0 0.00 0.00 0.00 75 1008.4
20260507220204 56 36 0.0 1.0 0.00 0.00 0.00 76 1008.4
20260507214704 56 36 0.0 1.0 0.00 0.00 0.00 76 1008.4
20260507213704 56 36 1.0 3.0 0.00 0.00 0.00 76 1008.2
20260507213204 56 36 1.0 5.0 0.00 0.00 0.00 77 1008.2
20260507210204 56 36 1.0 2.0 0.00 0.00 0.00 79 1008.2
20260507204704 57 36 0.0 0.0 0.00 0.00 0.00 77 1008.2
20260507204203 57 36 0.0 0.0 0.00 0.00 0.00 78 1008.2
20260507201703 58 36 0.0 0.0 0.00 0.00 0.00 74 1007.9
20260507200704 58 36 0.0 0.0 0.00 0.00 0.00 71 1007.9
20260507200204 58 36 0.0 0.0 0.00 0.00 0.00 71 1007.9
20260507194704 59 36 0.0 0.0 0.00 0.00 0.00 68 1007.6
20260507191704 61 36 0.0 0.0 0.00 0.00 0.00 62 1007.6
20260507184704 63 36 0.0 0.0 0.00 0.00 0.00 57 1006.6
20260507184203 64 36 0.0 0.0 0.00 0.00 0.00 56 1006.6
20260507183205 65 36 0.0 1.0 0.00 0.00 0.00 55 1006.6
20260507181204 66 36 0.0 1.0 0.00 0.00 0.00 50 1006.6
20260507180205 67 36 0.0 3.0 0.00 0.00 0.00 47 1006.6
20260507173205 69 36 1.0 3.0 0.00 0.00 0.00 43 1006.6
20260507171705 70 36 0.0 2.0 0.00 0.00 0.00 42 1006.6
20260507171204 70 36 0.0 1.0 0.00 0.00 0.00 42 1006.4
20260507170205 71 36 1.0 3.0 0.00 0.00 0.00 41 1006.4
20260507164205 71 36 1.0 3.0 0.00 0.00 0.00 40 1006.4
20260507160205 71 36 1.0 3.0 0.00 0.00 0.00 40 1006.4
20260507151205 72 36 1.0 3.0 0.00 0.00 0.00 40 1006.8
20260507144204 73 36 2.0 3.0 0.00 0.00 0.00 39 1006.8
20260507143205 74 36 2.0 6.0 0.00 0.00 0.00 37 1006.7
20260507140205 73 32 2.0 7.0 0.00 0.00 0.00 36 1006.9
20260507134205 73 31 2.0 5.0 0.00 0.00 0.00 38 1006.9
20260507133205 73 23 1.0 5.0 0.00 0.00 0.00 37 1006.9
20260507131704 72 15 1.0 3.0 0.00 0.00 0.00 38 1006.9
20260507131205 72 18 1.0 3.0 0.00 0.00 0.00 39 1006.9
20260507124205 72 17 2.0 5.0 0.00 0.00 0.00 42 1006.9
20260507123704 72 14 2.0 3.0 0.00 0.00 0.00 41 1006.9
20260507121704 71 12 2.0 3.0 0.00 0.00 0.00 41 1007.4
20260507121205 71 26 2.0 5.0 0.00 0.00 0.00 43 1007.4
20260507120204 71 26 1.0 3.0 0.00 0.00 0.00 44 1007.4
20260507113205 70 26 1.0 3.0 0.00 0.00 0.00 42 1007.8
20260507111704 70 27 2.0 5.0 0.00 0.00 0.00 41 1007.8
20260507111204 70 22 1.0 3.0 0.00 0.00 0.00 42 1007.8
20260507110705 69 26 2.0 3.0 0.00 0.00 0.00 44 1007.8
20260507110205 69 33 2.0 6.0 0.00 0.00 0.00 40 1007.8
20260507104705 69 355 1.0 3.0 0.00 0.00 0.00 40 1007.8
20260507103204 70 355 0.0 3.0 0.00 0.02 0.00 40 1008.1
20260507094705 69 336 1.0 5.0 0.00 0.08 0.00 42 1008.1
20260507090705 70 227 0.0 3.0 0.00 0.08 0.00 40 1008.0
20260507090204 69 227 1.0 3.0 0.00 0.08 0.00 40 1007.9
20260507084705 68 227 0.0 3.0 0.00 0.08 0.00 42 1007.9
20260507084205 68 208 1.0 3.0 0.00 0.08 0.00 40 1007.9
20260507083704 68 210 1.0 3.0 0.00 0.08 0.00 39 1007.9
20260507083205 68 208 0.0 3.0 0.00 0.08 0.00 40 1007.9
20260507080204 67 212 0.0 3.0 0.00 0.08 0.00 41 1007.9
20260507074704 66 212 1.0 3.0 0.00 0.08 0.00 50 1007.9
20260507074205 65 212 1.0 3.0 0.00 0.08 0.00 52 1007.9
20260507073204 64 212 0.0 3.0 0.00 0.08 0.00 52 1007.9
20260507071705 63 212 1.0 3.0 0.00 0.08 0.00 54 1007.9